Flag for Germany Weather past 2 weeks in Germering, Bavaria, Germany

Now
34 °F

Passing clouds.


Feels Like: 27 °F
Forecast: 26 / 39 °F
Wind: 8 mph from Southwest

Location: Landsberg

Current Time: Mar 5, 2015 at 1:51:41 AM

Latest Report: Mar 5, 2015 at 1:20 AM


Visibility: N/A

Pressure: 30.39 "Hg

Humidity: 75%

Dew point: 27 °F

Location of GermeringLocation

Historic Weather in Germering — Graph

°F

Germering temperature yesterday

Maximum temperature yesterday: 41 °F (at 12:20 AM)
Minimum temperature yesterday: 32 °F (at 4:20 AM)
Average temperature yesterday: 35 °F

Past Weeks' High & Low Weather Summary

 TemperatureHumidityPressure
High52 °F (Feb 20, 2:20 PM)100% (Feb 18, 12:20 AM)30.66 "Hg (Feb 18, 12:20 AM)
Low19 °F (Feb 23, 6:20 AM)28% (Feb 20, 2:20 PM)29.47 "Hg (Feb 21, 1:20 PM)
Average33 °F82%29.99 "Hg
* Reported Feb 18 12:20 AM — Mar 5 12:20 AM, Germering, Weather by CustomWeather, © 2015

Note: Actual official high and low records may vary slightly from our data, if they occured in-between our weather recording intervals... More about our weather records

Advertising

Germering weather history for previous 24 hours

 ConditionsComfort  
Time TempWeatherWind HumidityBarometerVisibility
12:20 AM
Thu, Mar 5
34 °FPassing clouds.7 mph75%30.39 "HgN/A
11:20 PM
Wed, Mar 4
32 °FPassing clouds.8 mph80%30.39 "HgN/A
10:20 PM32 °FPassing clouds.7 mph80%30.36 "HgN/A
9:20 PM32 °FPassing clouds.9 mph80%30.33 "HgN/A
8:20 PM32 °FPassing clouds.7 mph80%30.33 "HgN/A
7:20 PM34 °FPassing clouds.7 mph81%30.30 "HgN/A
6:20 PM36 °FPassing clouds.8 mph75%30.30 "HgN/A
5:20 PM37 °FBroken clouds.8 mph70%30.27 "HgN/A
4:20 PM37 °FBroken clouds.9 mph65%30.27 "HgN/A
3:20 PM37 °FBroken clouds.14 mph70%30.24 "HgN/A
2:20 PM39 °FBroken clouds.10 mph65%30.24 "HgN/A
1:20 PM39 °FSnow flurries. Broken clouds.10 mph61%30.27 "HgN/A
12:20 PM37 °FBroken clouds.12 mph70%30.27 "HgN/A
11:20 AM37 °FBroken clouds.12 mph81%30.27 "HgN/A
10:20 AM36 °FBroken clouds.12 mph81%30.27 "HgN/A
9:20 AM34 °FBroken clouds.6 mph87%30.27 "HgN/A
8:20 AM34 °FPartly sunny.10 mph87%30.24 "HgN/A
7:20 AM32 °FBroken clouds.9 mph100%30.24 "HgN/A
6:20 AM32 °FLight snow. Passing clouds.7 mph100%30.21 "Hg5 mi
5:20 AM32 °FLight snow. Partly cloudy.6 mph100%30.18 "Hg3 mi
4:45 AM32 °FLight snow. Partly cloudy.8 mph100%30.18 "Hg2 mi
4:20 AM32 °FSnow. Passing clouds.10 mph100%30.18 "Hg1 mi
3:20 AM37 °FLight rain. Passing clouds.22 mph87%30.12 "HgN/A
2:20 AM39 °FLight rain. Partly cloudy.18 mph70%30.12 "HgN/A
1:20 AM41 °FPassing clouds.17 mph61%30.12 "HgN/A
Weather by CustomWeather, © 2015

See weather overviewHow to use our weather pages